Location: Hac?sekiler
(36.8420°N, 30.5195°E)
Time: 00:43:40
(UTC+00:00)

Daily predictions for brighter satellites

Satellite Brightness Start Highest point End
(mag) Time Altitude Azimuth Time Altitude Azimuth Time Altitude Azimuth
Cosmos 1697 Rocket 3.8 00:50:48 37° NNE 00:50:48 37° NNE 00:54:09 10° NNE
Cosmos 1980 Rocket 2.9 00:53:30 50° ENE 00:53:30 50° ENE 00:58:09 10° NNE
USA 267 3.9 00:49:21 10° NNE 00:54:57 42° NNW 00:54:57 42° NNW
BREEZE-M DEB (TANK) 3.9 01:09:21 71° SW 01:10:14 86° SE 01:29:50 10° ENE
Cosmos 1821 Rocket 4.1 01:06:35 10° N 01:11:55 65° NNW 01:11:55 65° NNW
Spot 4 Rocket 4.4 01:15:12 10° N 01:19:16 56° N 01:19:16 56° N
SL-4 R/B 4.3 01:21:44 20° SE 01:22:15 20° SE 01:25:39 10° E
USA 234 3.6 01:21:07 10° ESE 01:27:30 61° NE 01:33:55 10° NW
Cosmos 1934 Rocket 4.0 01:21:59 10° N 01:28:02 77° E 01:34:07 10° S
Lacrosse 5 3.1 01:32:48 29° NNW 01:32:48 29° NNW 01:36:36 10° NNE
Cosmos 1777 Rocket 3.9 01:27:33 10° NNW 01:37:31 13° SSE 01:37:59 10° SSE
ERBS 4.1 01:37:01 32° ENE 01:37:01 32° ENE 01:39:05 10° NE
Cosmos 1238 Rocket 4.0 01:29:28 10° N 01:36:06 80° E 01:42:04 10° S
ADEOS II 4.2 01:37:35 10° NNW 01:38:28 13° NNW 01:38:28 13° NNW
CZ-2C R/B 4.2 01:41:14 10° N 01:43:08 28° N 01:43:08 28° N
Cosmos 44 3.4 01:46:22 52° NNW 01:46:22 52° NNW 01:50:19 10° NNE
Cosmos 2278 4.0 01:46:14 46° WNW 01:46:17 46° WNW 01:51:47 10° N
DEBRIS 4.4 01:45:59 20° N 01:46:45 22° NE 01:50:16 10° E
MSX 3.8 01:42:42 10° N 01:48:25 61° WNW 01:49:36 50° WSW
Timation 1 Rocket 4.3 01:43:17 10° NNW 01:49:19 84° ENE 01:55:19 10° SSE
Cosmos 1605 Rocket 4.2 01:44:20 10° N 01:50:45 75° E 01:57:08 10° SSE
Cosmos 921 Rocket 2.7 01:50:57 80° SSW 01:51:11 90° WNW 01:55:22 10° NNE
Cosmos 1535 Rocket 4.4 01:45:11 10° N 01:51:34 73° W 01:57:54 10° S
Cosmos 2228 Rocket 2.9 01:53:39 70° W 01:53:48 71° W 01:58:12 10° N
IDEFIX/ARIANE 42P 3.4 01:49:33 10° N 01:53:41 33° NW 01:53:41 33° NW
ARIANE 5 R/B 4.1 01:59:22 10° NNW 02:01:50 19° NW 02:01:50 19° NW
OE (NEXTSAT) 4.3 02:04:55 70° S 02:04:55 70° S 02:08:07 10° SE
CZ-4C R/B 4.3 02:09:00 29° NW 02:09:00 29° NW 02:10:57 10° NNW
IRIDIUM 106 4.3 02:05:34 10° N 02:10:49 87° E 02:16:02 10° S
ALOS 3.7 02:07:27 10° NNE 02:11:49 39° E 02:16:10 10° SSE
GENESIS II 4.5 02:16:48 42° W 02:17:38 50° WNW 02:21:35 10° NNE
Cosmos 1869 Rocket 3.4 02:13:33 10° N 02:17:55 83° W 02:22:13 10° S
Cosmos 1727 Rocket 4.0 02:12:31 10° S 02:18:52 85° W 02:25:15 10° N
Meteor 1-4 Rocket 2.3 02:18:17 37° SSW 02:19:29 69° W 02:22:57 10° N
Chandra Rocket (1) 4.4 02:12:35 22° W 02:20:53 39° SSW 02:26:18 10° SE
Cosmos 1484 Rocket 3.6 02:19:48 10° NNE 02:23:42 52° E 02:27:36 10° S
Cosmos 1763 Rocket 3.5 02:18:28 10° SSW 02:23:47 88° WNW 02:29:08 10° NNE
Cosmos 2360 Rocket 3.5 02:21:25 10° S 02:26:39 40° ESE 02:31:54 10° NE
X-37B 2.9 02:29:08 12° NW 02:31:03 19° N 02:33:25 10° NE
H-2A R/B 2.7 02:29:16 10° SSW 02:33:07 32° W 02:37:05 10° NW
SJ 16-02 1.2 02:29:18 10° NNW 02:33:41 78° WSW 02:38:05 10° S
Meteor 1-31 Rocket 3.4 02:30:40 10° NNE 02:34:26 57° E 02:38:12 10° S
PSLV R/B 4.2 02:31:32 10° N 02:35:18 33° WNW 02:37:18 21° WSW
ERS-2 2.3 02:33:03 10° S 02:36:33 45° W 02:40:06 10° NNW
Cosmos 1980 Rocket 3.6 02:35:19 18° WNW 02:36:57 20° NW 02:41:03 10° N
CZ-2C R/B 3.0 02:35:57 10° N 02:40:41 39° WNW 02:45:28 10° SW
Cosmos 2322 Rocket 2.1 02:36:12 10° SSW 02:41:51 77° WNW 02:47:34 10° NNE
METEOR-M 4.4 02:37:54 10° NNE 02:43:15 72° ESE 02:48:35 10° S
FENGYUN 3A 3.7 02:40:55 10° NNE 02:46:20 89° WNW 02:51:45 10° SSW
FALCON 9 DEB 3.1 02:44:41 20° SW 02:46:57 71° NW 02:50:22 10° NE
Cosmos 1459 Rocket 4.2 02:41:07 10° N 02:47:13 75° E 02:53:15 10° SSE
Cosmos 468 Rocket 4.4 02:43:19 10° SW 02:48:23 45° WNW 02:53:26 10° N
SL-16 R/B 2.4 02:44:02 10° SW 02:49:32 53° WNW 02:55:06 10° NNE
Cosmos 2263 Rocket 2.2 02:44:34 10° NNW 02:50:10 63° WSW 02:55:45 10° S
Cosmos 990 Rocket 3.9 02:45:08 10° NNW 02:50:21 82° WSW 02:55:33 10° SSE
SL-8 R/B 4.5 02:47:12 10° NW 02:51:51 51° NNE 02:56:30 10° ESE
Cosmos 1812 4.2 02:52:18 16° W 02:53:23 18° WNW 02:56:05 10° NNW
COSMO-SKYMED 1 3.8 02:51:39 10° SSE 02:55:48 46° ENE 02:59:58 10° N
SJ-12 4.4 02:51:43 10° NNE 02:55:49 64° E 02:59:54 10° S
Cosmos 540 Rocket 3.5 02:52:06 10° SSW 02:57:15 86° WNW 03:02:28 10° NNE
ATLAS 2AS CENTAUR R/B 4.2 02:50:44 10° NNW 02:57:37 39° NE 03:03:56 10° ESE
Cosmos 44 Rocket 3.4 02:55:27 10° SSW 03:00:08 80° ESE 03:04:56 10° NNE
Cosmos 2227 4.4 02:55:40 10° NW 03:01:02 46° WSW 03:06:21 10° S
SL-4 R/B 2.4 02:57:22 12° WSW 03:01:34 62° NW 03:06:19 10° NE
USA 281 4.4 03:01:15 10° NE 03:07:31 46° ESE 03:13:45 10° S
Cosmos 1666 3.4 03:06:42 10° NNW 03:10:05 30° W 03:13:25 10° SSW
USA 234 3.9 03:04:54 10° S 03:10:41 34° SW 03:16:28 10° WNW
ADEOS Rocket 3.6 03:04:38 10° S 03:11:19 43° W 03:17:24 10° NNW
CZ-4B R/B 2.2 03:09:29 10° SSW 03:12:08 25° W 03:14:49 10° NW
ERBS 4.4 03:10:20 10° WNW 03:12:19 15° NW 03:14:19 10° N
Cosmos 2173 Rocket 4.1 03:11:06 10° NNW 03:17:20 61° W 03:23:34 10° S
Cosmos 2219 Rocket 3.9 03:13:23 10° S 03:18:32 38° ESE 03:23:45 10° NE
Cosmos 1898 Rocket 3.7 03:13:33 10° NNW 03:18:35 48° WSW 03:23:38 10° S
H-2A R/B 3.9 03:14:54 10° NNE 03:19:04 47° E 03:23:20 10° S
ARGOS Delta rocket 4.4 03:15:00 10° NNE 03:19:26 60° E 03:24:04 10° S
Cosmos 2242 Rocket 3.8 03:17:03 10° S 03:21:26 79° E 03:25:50 10° N
Cosmos 2208 Rocket 4.1 03:16:33 10° SSW 03:21:46 64° WNW 03:26:57 10° NNE
